[[{"header":{"parameterUnit":"m.s-1","parameterCategory":1,"la1":30.2991,"la2":30.254,"lo1":-89.0895,"lo2":-89.0444,"dy":0.0017,"dx":0.0017,"nx":28,"ny":28,"refTime":"2024-08-20T09:00:00:Z","depth":0,"parameterNumber":2,"parameterNumberName":"U-component_of_WINDS"},"data":[0,0,0,0,0,0,0,0,0,0,0,0,0,0,0,0,0,0,0,0,0,0,0,0,0,0,0,0,0,0,0,0,0,0,0,0,0,0,0,0,0,0,0,0,0,0,0,0,0,0,0,0,0,0,0,0,0,0,-1.6955,-1.6954,0,-1.6865,-1.6864,-1.6863,-1.6781,-1.678,-1.6779,-1.6778,-1.6682,-1.668,-1.6679,0,0,0,0,0,0,0,0,0,0,0,0,0,-1.7052,-1.7051,-1.6955,-1.6954,-1.6952,-1.6865,-1.6864,-1.6862,-1.6781,-1.678,-1.6779,-1.6778,-1.6682,-1.668,-1.6678,0,0,0,0,0,0,0,0,0,0,0,0,0,-1.6991,-1.705,-1.6955,-1.6901,-1.6896,-1.6865,-1.6864,-1.6862,-1.6781,-1.678,-1.6778,-1.6777,-1.6683,-1.6681,-1.6678,-1.6692,0,0,-1.6671,-1.667,0,0,0,0,0,0,0,0,-1.6994,-1.6987,-1.691,-1.6905,-1.6899,-1.6833,-1.6863,-1.6805,-1.6782,-1.6825,-1.6778,-1.6776,-1.6733,-1.6726,-1.6712,-1.6688,-1.6683,-1.667,-1.6669,-1.6668,-1.6667,0,0,0,0,0,0,0,-1.6999,-1.6991,-1.6919,-1.6909,-1.6902,-1.6881,-1.687,-1.6851,-1.6788,-1.6821,-1.6815,-1.6805,-1.6729,-1.6715,-1.671,-1.6682,-1.667,-1.6668,-1.6667,-1.6666,-1.6663,-1.6664,0,0,0,0,0,0,-1.7012,-1.6995,-1.6922,-1.6916,-1.6944,-1.688,-1.6868,-1.6855,-1.6788,-1.6776,-1.6807,-1.6802,-1.672,-1.6713,-1.6706,-1.6717,-1.6668,-1.6666,-1.6664,-1.6661,-1.6663,-1.6664,0,0,0,0,0,0,-1.7014,-1.7006,-1.6925,-1.6954,-1.6942,-1.688,-1.6866,-1.6854,-1.684,-1.6777,-1.6765,-1.6804,-1.6719,-1.6709,-1.6696,-1.6712,-1.6664,-1.6662,-1.6659,-1.6662,-1.6664,-1.6739,0,0,0,0,0,0,-1.7017,-1.7007,-1.7013,-1.6955,-1.6941,-1.6919,-1.6867,-1.6853,-1.6836,-1.6829,-1.6772,-1.6761,-1.6717,-1.67,-1.6694,-1.6708,-1.666,-1.6658,-1.666,-1.6663,-1.6735,-1.6744,-1.6751,0,0,0,0,0,-1.7021,-1.7037,-1.7014,-1.7005,-1.6947,-1.692,-1.6912,-1.6862,-1.6838,-1.6842,-1.6802,-1.6762,-1.6712,-1.67,-1.6691,-1.6705,-1.6656,-1.666,-1.6663,-1.6732,-1.6742,-1.6751,0,0,0,0,0,0,-1.7098,-1.7029,-1.7002,-1.7,-1.6967,-1.6906,-1.691,-1.6875,-1.6847,-1.6841,-1.678,-1.6767,-1.6761,-1.6731,-1.6719,-1.6715,-1.6679,-1.668,-1.6734,-1.6743,-1.6751,-1.6758,-1.6658,0,0,0,0,0,-1.7115,-1.71,-1.704,-1.7044,-1.7029,-1.6973,-1.6959,-1.6924,-1.6886,-1.6871,-1.683,-1.6794,-1.677,-1.6755,-1.6729,-1.6731,-1.6716,-1.6736,-1.6744,-1.6751,-1.6753,-1.675,-1.6758,-1.6675,-1.6675,-1.6675,0,0,-1.7149,-1.7109,-1.7104,-1.7058,-1.7028,-1.7013,-1.6961,-1.6947,-1.6935,-1.6869,-1.6854,-1.6822,-1.6778,-1.6772,-1.6767,-1.6747,-1.6773,-1.6755,-1.6761,-1.6759,-1.6755,-1.6763,-1.677,-1.6677,-1.6676,-1.6676,0,0,-1.7204,-1.7173,-1.7173,-1.7144,-1.71,-1.7062,-1.7062,-1.7007,-1.6984,-1.6969,-1.6918,-1.6902,-1.6862,-1.6832,-1.6812,-1.6855,-1.6817,-1.6849,-1.689,-1.6889,-1.6895,-1.6901,-1.6915,-1.6921,-1.6851,-1.6851,-1.6851,0,-1.7252,-1.7228,-1.7176,-1.7166,-1.7147,-1.7087,-1.7086,-1.706,-1.7009,-1.6997,-1.6976,-1.6924,-1.689,-1.6876,-1.6887,-1.6872,-1.6869,-1.6854,-1.6899,-1.6904,-1.6908,-1.6921,-1.6927,-1.6855,-1.6855,-1.6854,-1.6854,0,-1.7288,-1.7273,-1.7278,-1.7231,-1.7213,-1.7207,-1.7153,-1.714,-1.7107,-1.7071,-1.7055,-1.7013,-1.6977,-1.6971,-1.6938,-1.6952,-1.6941,-1.6911,-1.6873,-1.6921,-1.6932,-1.6937,-1.6861,-1.6859,-1.6858,-1.6857,0,0,-1.7388,-1.7314,-1.7317,-1.7295,-1.7241,-1.7227,-1.7218,-1.7185,-1.7174,-1.7141,-1.7131,-1.7099,-1.707,-1.7047,-1.701,-1.7008,-1.7044,-1.6977,-1.6975,-1.699,-1.7056,-1.7078,-1.7085,-1.7019,-1.702,-1.7021,-1.7059,0,-1.7433,-1.7415,-1.7368,-1.7363,-1.7347,-1.7291,-1.7282,-1.7248,-1.7215,-1.7195,-1.7157,-1.7135,-1.71,-1.7085,-1.7081,-1.7041,-1.7056,-1.7038,-1.7007,-1.7007,-1.7019,-1.7091,-1.7115,-1.7153,-1.7063,-1.7064,-1.7064,0,-1.7483,-1.7455,-1.7449,-1.7396,-1.7388,-1.7381,-1.7346,-1.7329,-1.7288,-1.7264,-1.7239,-1.7198,-1.7183,-1.715,-1.7128,-1.7117,-1.7102,-1.708,-1.708,-1.7074,-1.7038,-1.7086,-1.7164,-1.717,-1.7071,-1.707,-1.707,0,-1.7556,-1.7516,-1.7507,-1.749,-1.7428,-1.7425,-1.7399,-1.7357,-1.734,-1.7309,-1.7296,-1.7264,-1.7246,-1.7221,-1.7172,-1.7152,-1.7156,-1.7118,-1.7133,-1.7135,-1.7136,-1.7136,-1.7211,-1.7128,-1.7128,-1.7128,-1.7128,0,-1.761,-1.7608,-1.7538,-1.7533,-1.7528,-1.7474,-1.7471,-1.744,-1.7403,-1.7389,-1.7338,-1.7326,-1.7263,-1.7242,-1.7204,-1.7191,-1.7184,-1.7162,-1.7152,-1.7166,-1.7169,-1.7154,-1.715,-1.713,-1.7129,-1.7129,-1.7129,0,-1.769,-1.7643,-1.7629,-1.7572,-1.7558,-1.7557,-1.7508,-1.7499,-1.7463,-1.7446,-1.7439,-1.7382,-1.7356,-1.7305,-1.7264,-1.7238,-1.7233,-1.7216,-1.7247,-1.724,-1.7258,-1.7257,-1.7326,-1.7331,-1.7247,-1.7248,-1.7249,0,-1.7727,-1.7724,-1.7668,-1.7655,-1.7632,-1.7612,-1.7595,-1.7541,-1.7524,-1.7478,-1.7475,-1.7445,-1.7418,-1.7379,-1.7332,-1.7301,-1.7281,-1.7307,-1.7276,-1.729,-1.728,-1.728,-1.7279,-1.7314,-1.7315,-1.7316,-1.7317,0,-1.7798,-1.7775,-1.7752,-1.7721,-1.7701,-1.7674,-1.7644,-1.7636,-1.7575,-1.7559,-1.7532,-1.7512,-1.747,-1.7441,-1.7402,-1.7373,-1.7335,-1.7328,-1.7329,-1.7343,-1.7361,-1.735,-1.7265,-1.7326,-1.7325,-1.7324,-1.7324,-1.7324,-1.7856,-1.7851,-1.781,-1.7786,-1.7758,-1.7731,-1.772,-1.7683,-1.766,-1.7623,-1.7593,-1.7568,-1.7527,-1.7471,-1.7445,-1.7424,-1.7406,-1.7408,-1.7409,-1.741,-1.7415,-1.7366,-1.7417,-1.7417,-1.7416,-1.7416,-1.7416,0,-1.7923,-1.7894,-1.7873,-1.7833,-1.7813,-1.7781,-1.7745,-1.7731,-1.771,-1.7676,-1.765,-1.7619,-1.759,-1.7542,-1.7509,-1.7501,-1.7482,-1.7494,-1.7493,-1.7487,-1.7434,-1.7436,-1.7509,-1.7509,-1.7509,-1.7509,-1.7509,-1.7509,-1.7956,-1.7945,-1.7917,-1.7891,-1.7862,-1.7838,-1.7821,-1.7795,-1.7767,-1.7735,-1.7711,-1.768,-1.7639,-1.7603,-1.7574,-1.7561,-1.755,-1.7567,-1.7548,-1.7499,-1.7491,-1.7482,-1.7483,-1.7566,-1.7566,-1.7601,-1.7602,-1.7602]},{"header":{"parameterUnit":"m.s-1","parameterCategory":1,"la1":30.2991,"la2":30.254,"lo1":-89.0895,"lo2":-89.0444,"dy":0.0017,"dx":0.0017,"nx":28,"ny":28,"refTime":"2024-08-20T09:00:00:Z","depth":0,"parameterNumber":3,"parameterNumberName":"V-component_of_WINDS"},"data":[0,0,0,0,0,0,0,0,0,0,0,0,0,0,0,0,0,0,0,0,0,0,0,0,0,0,0,0,0,0,0,0,0,0,0,0,0,0,0,0,0,0,0,0,0,0,0,0,0,0,0,0,0,0,0,0,0,0,-3.0662,-3.0663,0,-3.0683,-3.0683,-3.0683,-3.0663,-3.0662,-3.0662,-3.0661,-3.0679,-3.0681,-3.0682,0,0,0,0,0,0,0,0,0,0,0,0,0,-3.0603,-3.0604,-3.0662,-3.0663,-3.0663,-3.0683,-3.0683,-3.0683,-3.0663,-3.0662,-3.0662,-3.0661,-3.0679,-3.0681,-3.0682,0,0,0,0,0,0,0,0,0,0,0,0,0,-3.0626,-3.0604,-3.0662,-3.0655,-3.0655,-3.0682,-3.0683,-3.0683,-3.0664,-3.0662,-3.0661,-3.066,-3.0679,-3.068,-3.0682,-3.0717,0,0,-3.0688,-3.0689,0,0,0,0,0,0,0,0,-3.0625,-3.0628,-3.0656,-3.0656,-3.0656,-3.0669,-3.0669,-3.0694,-3.0664,-3.066,-3.0661,-3.066,-3.0677,-3.0679,-3.0685,-3.0718,-3.0718,-3.0688,-3.0689,-3.069,-3.069,0,0,0,0,0,0,0,-3.0623,-3.0627,-3.067,-3.0657,-3.0656,-3.065,-3.0652,-3.0673,-3.0675,-3.066,-3.0659,-3.0662,-3.0676,-3.0683,-3.0685,-3.0719,-3.0688,-3.0689,-3.0691,-3.0691,-3.0777,-3.0778,0,0,0,0,0,0,-3.0623,-3.0626,-3.067,-3.0671,-3.0637,-3.0652,-3.0654,-3.0666,-3.0675,-3.0675,-3.0663,-3.0661,-3.0681,-3.0683,-3.0686,-3.0724,-3.069,-3.0692,-3.0693,-3.0776,-3.0777,-3.0779,0,0,0,0,0,0,-3.0622,-3.0627,-3.0669,-3.0648,-3.0653,-3.0654,-3.0667,-3.0667,-3.0674,-3.0676,-3.0676,-3.067,-3.068,-3.0683,-3.0709,-3.0725,-3.0692,-3.0694,-3.0774,-3.0776,-3.0778,-3.0803,0,0,0,0,0,0,-3.062,-3.0627,-3.0641,-3.0649,-3.0654,-3.0692,-3.0669,-3.0668,-3.0677,-3.0675,-3.0683,-3.0683,-3.0679,-3.0706,-3.071,-3.0727,-3.0695,-3.0773,-3.0775,-3.0777,-3.0801,-3.0805,-3.081,0,0,0,0,0,-3.0618,-3.0647,-3.0642,-3.0647,-3.0672,-3.0693,-3.0696,-3.0692,-3.0679,-3.0692,-3.0693,-3.0683,-3.0723,-3.0709,-3.0714,-3.0731,-3.0772,-3.0775,-3.0777,-3.0799,-3.0805,-3.0809,0,0,0,0,0,0,-3.0641,-3.0648,-3.0642,-3.0675,-3.0684,-3.069,-3.0707,-3.0699,-3.0711,-3.0708,-3.0702,-3.0704,-3.073,-3.0733,-3.0717,-3.0763,-3.0745,-3.0749,-3.076,-3.0765,-3.0769,-3.0767,-3.0697,0,0,0,0,0,-3.065,-3.0668,-3.0673,-3.0701,-3.0706,-3.0706,-3.0715,-3.0711,-3.0719,-3.0723,-3.0726,-3.0734,-3.0747,-3.0757,-3.077,-3.0802,-3.0801,-3.0816,-3.082,-3.0824,-3.0826,-3.084,-3.0846,-3.0787,-3.0787,-3.0787,0,0,-3.0669,-3.0675,-3.0687,-3.0706,-3.0712,-3.0729,-3.0709,-3.0728,-3.074,-3.0725,-3.0749,-3.0751,-3.0759,-3.0787,-3.0799,-3.079,-3.0842,-3.0827,-3.083,-3.083,-3.0843,-3.0849,-3.0854,-3.0789,-3.0789,-3.0789,0,0,-3.0711,-3.0719,-3.0742,-3.0748,-3.0758,-3.0757,-3.0762,-3.077,-3.077,-3.0794,-3.0783,-3.0796,-3.0821,-3.0826,-3.0833,-3.0874,-3.0864,-3.0879,-3.0901,-3.0915,-3.0919,-3.0923,-3.0936,-3.094,-3.0882,-3.0882,-3.0882,0,-3.0733,-3.0759,-3.0755,-3.0774,-3.0781,-3.0769,-3.0791,-3.0797,-3.0811,-3.0815,-3.0806,-3.0835,-3.084,-3.0867,-3.0877,-3.0884,-3.0888,-3.0877,-3.0919,-3.0923,-3.0927,-3.0938,-3.0943,-3.0884,-3.0883,-3.0883,-3.0883,0,-3.0783,-3.0801,-3.0818,-3.0831,-3.0841,-3.0861,-3.0859,-3.0869,-3.0864,-3.0864,-3.0886,-3.0892,-3.0904,-3.0911,-3.0907,-3.0937,-3.0931,-3.092,-3.0902,-3.0934,-3.0944,-3.0949,-3.0886,-3.0885,-3.0885,-3.0884,0,0,-3.084,-3.0849,-3.0855,-3.086,-3.0869,-3.0881,-3.0901,-3.0913,-3.0921,-3.093,-3.0944,-3.0965,-3.0955,-3.0962,-3.0957,-3.097,-3.0999,-3.0957,-3.0957,-3.0963,-3.103,-3.1036,-3.1042,-3.0993,-3.0994,-3.0995,-3.1028,0,-3.088,-3.0914,-3.091,-3.0941,-3.0956,-3.0944,-3.096,-3.0966,-3.0966,-3.0978,-3.0977,-3.0991,-3.0978,-3.0981,-3.0993,-3.0993,-3.1012,-3.0991,-3.1004,-3.1005,-3.1,-3.1048,-3.1055,-3.1086,-3.1033,-3.1034,-3.1034,0,-3.0932,-3.0942,-3.0975,-3.0978,-3.0985,-3.0999,-3.1009,-3.1021,-3.1027,-3.1026,-3.1033,-3.1026,-3.1043,-3.1026,-3.1048,-3.1033,-3.1039,-3.1039,-3.104,-3.104,-3.102,-3.1046,-3.1097,-3.11,-3.1041,-3.1041,-3.104,0,-3.0966,-3.0989,-3.101,-3.1015,-3.1021,-3.1031,-3.1034,-3.1039,-3.1046,-3.1054,-3.1058,-3.1069,-3.1074,-3.1082,-3.1077,-3.1066,-3.1099,-3.1082,-3.1097,-3.1097,-3.1103,-3.1103,-3.1153,-3.1111,-3.1111,-3.1111,-3.1111,0,-3.101,-3.103,-3.1025,-3.1039,-3.1059,-3.1054,-3.1075,-3.1076,-3.108,-3.1092,-3.1083,-3.1094,-3.1088,-3.1099,-3.1095,-3.1113,-3.1116,-3.1114,-3.1113,-3.1114,-3.1114,-3.1116,-3.1112,-3.1112,-3.1112,-3.1111,-3.1111,0,-3.1052,-3.105,-3.1072,-3.1076,-3.1077,-3.1092,-3.1094,-3.1106,-3.1105,-3.112,-3.1123,-3.1121,-3.1133,-3.1129,-3.1142,-3.114,-3.1161,-3.1158,-3.1159,-3.1157,-3.1171,-3.1169,-3.1223,-3.1229,-3.1185,-3.1185,-3.1186,0,-3.1079,-3.1093,-3.1098,-3.1105,-3.1109,-3.1121,-3.1128,-3.1123,-3.113,-3.1137,-3.1147,-3.1157,-3.1165,-3.1184,-3.1183,-3.1193,-3.1188,-3.1206,-3.1189,-3.1189,-3.1185,-3.1184,-3.1184,-3.1209,-3.121,-3.121,-3.121,0,-3.1126,-3.1124,-3.1134,-3.1143,-3.1151,-3.1159,-3.1165,-3.1171,-3.1167,-3.1175,-3.1186,-3.1193,-3.1205,-3.1215,-3.1223,-3.1225,-3.1216,-3.1216,-3.1219,-3.122,-3.1219,-3.1217,-3.1165,-3.1214,-3.1214,-3.1214,-3.1213,-3.1213,-3.1159,-3.117,-3.1175,-3.1186,-3.119,-3.1195,-3.1205,-3.1205,-3.1215,-3.1224,-3.1221,-3.1233,-3.1237,-3.1247,-3.125,-3.1259,-3.1251,-3.1257,-3.1258,-3.1259,-3.126,-3.1219,-3.126,-3.126,-3.126,-3.126,-3.126,0,-3.1203,-3.1205,-3.1215,-3.1224,-3.1232,-3.1224,-3.123,-3.1237,-3.1248,-3.1252,-3.126,-3.1272,-3.1282,-3.1281,-3.129,-3.1297,-3.1293,-3.1299,-3.1297,-3.1297,-3.1267,-3.1262,-3.1302,-3.1302,-3.1302,-3.1302,-3.1302,-3.1302,-3.1227,-3.1244,-3.1242,-3.1261,-3.1263,-3.1275,-3.1279,-3.1283,-3.1286,-3.13,-3.1308,-3.1308,-3.131,-3.1318,-3.1325,-3.1325,-3.1327,-3.1334,-3.1332,-3.1304,-3.13,-3.1295,-3.1291,-3.1336,-3.1336,-3.1361,-3.1361,-3.1362]}]]